Location: Breungeshain
(50.5000°N, 9.2000°E)
Time: 20:58:01
(UTC+00:00)

ISS - Visible Passes

Search period start: 23 January 2021 00:00
Search period end: 02 February 2021 00:00
Orbit: 418 x 421 km, 51.6° (Epoch: 24 January)

Date Brightness Start Highest point End Pass type
(mag) Time Alt. Az. Time Alt. Az. Time Alt. Az.
23 Jan -2.6 16:56:13 10° SSW 16:59:16 32° SSE 17:01:49 13° E visible
23 Jan -2.4 18:32:29 10° WSW 18:34:48 41° W 18:34:48 41° W visible
24 Jan -3.8 17:45:08 10° WSW 17:48:32 79° SSE 17:49:25 46° E visible
24 Jan -0.3 19:22:02 10° W 19:22:23 12° W 19:22:23 12° W visible
25 Jan -3.5 16:57:51 10° WSW 17:01:11 61° SSE 17:04:00 14° E visible
25 Jan -2.5 18:34:38 10° W 18:36:58 40° WNW 18:36:58 40° WNW visible
26 Jan -3.8 17:47:13 10° W 17:50:36 75° N 17:51:32 44° ENE visible
26 Jan -0.4 19:24:08 10° WNW 19:24:30 13° WNW 19:24:30 13° WNW visible
27 Jan -3.7 16:59:48 10° WSW 17:03:11 86° NNW 17:06:05 14° ENE visible
27 Jan -2.5 18:36:44 10° W 18:39:03 40° WNW 18:39:03 40° WNW visible
28 Jan -3.7 17:49:18 10° W 17:52:41 71° N 17:53:37 44° ENE visible
28 Jan -0.4 19:26:11 10° WNW 19:26:35 13° WNW 19:26:35 13° WNW visible
29 Jan -3.7 17:01:51 10° W 17:05:14 71° N 17:08:11 13° E visible
29 Jan -2.6 18:38:45 10° WNW 18:41:09 43° W 18:41:09 43° W visible
30 Jan -3.8 17:51:19 10° WNW 17:54:43 86° NNE 17:55:46 41° E visible
30 Jan -0.4 19:28:16 10° W 19:28:44 13° W 19:28:44 13° W visible
31 Jan -3.7 17:03:52 10° W 17:07:15 76° N 17:10:25 12° E visible
31 Jan -2.5 18:40:44 10° W 18:43:24 39° WSW 18:43:24 39° WSW visible
01 Feb -3.4 17:53:15 10° WNW 17:56:37 60° SSW 17:58:08 29° SE visible
01 Feb -0.3 19:30:50 10° W 19:31:07 11° WSW 19:31:07 11° WSW visible
